Location: Marquette
(46.5440°N, 87.3950°W)
Time: 17:47:42
(UTC-05:00)

Daily predictions for brighter satellites

Satellite Brightness Start Highest point End
(mag) Time Altitude Azimuth Time Altitude Azimuth Time Altitude Azimuth
Thor Agena Rocket 3.7 18:54:25 10° NNE 18:59:29 78° WNW 19:04:31 10° SSW
SKYMED 2 3.5 18:56:15 10° NNE 19:00:37 76° ESE 19:04:57 10° S
BREEZE-M DEB (TANK) 4.4 19:00:36 10° S 19:03:02 15° SSE 19:04:45 10° ESE
Cosmos 2208 Rocket 4.3 18:59:34 10° NNW 19:04:55 53° ENE 19:10:12 10° SE
Meteor 1-19 Rocket 4.3 19:00:08 10° N 19:05:49 64° ENE 19:11:32 10° SSE
Cosmos 405 Rocket 4.4 19:06:14 10° NNE 19:09:00 17° ENE 19:11:45 10° ESE
Cosmos 2237 Rocket 3.3 19:04:48 10° N 19:09:27 25° NE 19:14:04 10° E
SJ-6B 3.0 19:07:05 10° SE 19:10:54 48° ENE 19:14:39 10° N
Cosmos 1954 Rocket 4.0 19:06:30 10° SSW 19:11:42 83° ESE 19:16:59 10° NNE
Cosmos 2333 4.4 19:06:29 10° NNW 19:12:07 54° ENE 19:17:45 10° SE
Cosmos 1536 Rocket 4.0 19:08:25 10° NNW 19:12:54 69° W 19:17:20 10° S
Cosmos 2237 4.2 19:08:06 10° NNW 19:13:52 77° ENE 19:19:35 10° SSE
COSMOS 2428 2.8 19:08:21 10° NNW 19:14:00 62° ENE 19:19:39 10° SE
ALOS 2.7 19:10:16 10° SE 19:14:38 41° ENE 19:19:01 10° N
HJ-1C 4.2 19:12:42 10° SE 19:15:43 31° ENE 19:18:45 10° N
TSX-5 3.7 19:13:23 10° SW 19:16:31 64° WNW 19:19:55 10° NNE
Okean 1-7 Rocket 3.8 19:12:51 10° N 19:17:15 48° ENE 19:21:35 10° SSE
H-2A R/B 3.8 19:14:37 10° ESE 19:17:41 25° ENE 19:20:49 10° NNE
Meteor 2-4 Rocket 3.7 19:14:22 10° N 19:19:52 59° ENE 19:25:11 10° SSE
Cosmos 2285 Rocket 4.3 19:14:33 10° NNW 19:20:49 50° ENE 19:27:02 10° SE
Cosmos 2219 Rocket 2.6 19:16:46 10° NNW 19:22:06 43° NE 19:27:25 10° SE
Cosmos 2360 Rocket 2.9 19:16:46 10° NNW 19:22:20 58° WSW 19:27:51 10° S
Gbstr 26 Del rocket 2.7 19:18:32 10° SW 19:22:21 60° SSE 19:25:41 12° ENE
Meteor 1-23 Rocket 4.4 19:19:51 10° N 19:25:35 56° ENE 19:31:12 10° SSE
Meteor 1-13 Rocket 4.4 19:21:05 10° NNW 19:26:40 79° W 19:32:19 10° S
Okean 2 4.2 19:23:05 10° N 19:26:49 31° ENE 19:30:33 10° SE
Cosmos 2219 3.4 19:27:36 10° S 19:33:09 53° ESE 19:38:44 10° NE
Helios 1B rocket 3.9 19:31:20 10° NE 19:34:06 17° E 19:36:51 10° SE
FREGAT/IRIS 2.7 19:31:29 10° S 19:34:34 82° WSW 19:37:41 10° NNW
Abrixas rocket 3.0 19:32:15 10° SW 19:35:22 36° SSE 19:37:11 20° E
Cosmos 2227 Rocket 3.5 19:31:48 10° SE 19:35:31 18° E 19:38:28 13° ENE
Helios 1A 3.9 19:33:28 11° ESE 19:36:41 27° ENE 19:40:12 10° N
Cosmos 1300 Rocket 3.8 19:35:17 10° SSW 19:39:42 75° W 19:44:11 10° N
Cosmos 1536 2.7 19:36:57 10° S 19:40:54 71° E 19:44:53 10° NNE
SL-16 R/B 3.5 19:40:48 10° N 19:45:11 22° NE 19:47:22 18° ENE
SAR-Lupe-4 4.1 19:44:53 16° SE 19:47:16 35° ENE 19:50:35 10° N
Cosmos 1455 Rocket 4.1 19:44:32 10° SE 19:47:57 23° E 19:51:22 10° NE
COSMO-SKYMED 1 4.3 19:44:36 10° N 19:48:35 36° WNW 19:52:32 10° SW
Cosmos 1437 3.7 19:49:49 10° N 19:52:44 28° ENE 19:52:44 28° ENE
Cosmos 1763 Rocket 4.2 19:50:39 10° N 19:55:18 33° ENE 19:57:29 24° ESE
CZ-4B DEB 4.4 19:59:15 20° NE 19:59:15 20° NE 20:00:45 10° NNE
Cosmos 1741 Rocket 4.1 19:54:43 10° SSW 19:59:57 81° WNW 20:05:13 10° NNE
Resurs 01 Rocket 1.5 19:56:52 10° SSE 20:01:16 88° ENE 20:05:42 10° NNW
Cosmos 1610 Rocket 4.4 20:01:17 10° S 20:07:22 60° E 20:13:24 10° NNE
Cosmos 2333 Rocket 2.2 20:02:25 10° NNW 20:08:11 75° ENE 20:12:59 15° SSE
Cosmos 1980 3.7 20:03:34 10° NNW 20:09:12 63° ENE 20:12:49 22° SE
GEOS 3 Rocket 3.9 20:08:20 21° ENE 20:11:32 45° ESE 20:16:34 10° SSW
Resurs 1-3 3.6 20:07:17 10° SSE 20:11:40 86° WSW 20:16:06 10° NNW
Cosmos 2327 Rocket 4.5 20:05:42 10° S 20:11:57 86° E 20:18:22 10° N
FENGYUN 3A 4.1 20:07:31 10° S 20:12:53 64° WSW 20:18:18 10° NNW
Cosmos 1892 Rocket 3.4 20:17:26 10° N 20:21:50 89° ESE 20:26:08 10° S
Cosmos 1025 Rocket 4.2 20:19:52 10° NNW 20:24:04 45° W 20:28:15 10° SSW
Cosmos 468 Rocket 4.0 20:19:06 10° NNW 20:24:22 81° WSW 20:28:51 15° SSE
USA 229 DEB 4.4 20:20:40 10° NW 20:27:35 56° WSW 20:34:36 10° SSE
USA 229 4.4 20:20:46 10° NW 20:27:42 56° WSW 20:34:44 10° SSE
USA 186 3.2 20:31:51 27° NNW 20:31:51 27° NNW 20:33:18 10° NNW
Spot 2 Rocket 4.2 20:26:32 10° S 20:31:29 54° W 20:36:28 10° NNW
Cosmos 2074 Rocket 4.4 20:25:39 10° SSW 20:31:51 65° W 20:38:08 10° N
Cosmos 1515 3.5 20:28:59 10° N 20:32:52 80° E 20:33:04 76° SE
Cosmos 2082 3.8 20:31:53 10° S 20:37:22 49° ESE 20:37:59 47° E
USA 215 4.3 20:33:12 17° NE 20:37:36 38° N 20:43:30 10° WNW
NOSS 3-1 (A) 4.0 20:32:56 10° NW 20:40:24 76° NE 20:44:07 36° SE
Spot 1 4.4 20:39:07 23° S 20:41:31 61° WSW 20:45:42 10° NNW
Meteor 2-13 Rocket 4.5 20:36:38 10° SSW 20:42:42 80° W 20:48:51 10° N
Cosmos 332 Rocket 3.7 20:38:53 10° NNW 20:43:48 70° ENE 20:44:09 67° E
ERS-1 Rocket 3.5 20:45:10 42° NE 20:45:10 42° NE 20:49:14 10° N
Cosmos 405 Rocket 3.9 20:41:26 10° NNW 20:45:20 44° W 20:48:31 14° SSW
Cosmos 1814 Rocket 4.1 20:40:18 10° NNW 20:45:27 71° WSW 20:47:53 31° S
ATLAS 2AS CENTAUR R/B 3.7 20:38:23 10° NW 20:45:52 38° NNE 20:48:05 32° ENE
Envisat 2.8 20:47:01 59° SE 20:47:53 75° ENE 20:53:00 10° N
Cosmos 1544 Rocket 3.7 20:43:39 10° SSW 20:47:58 71° W 20:52:18 10° N
USA 32 3.9 20:47:48 10° N 20:53:04 83° E 20:54:07 58° SSE
Nadezhda 3 Rocket 4.1 20:47:01 10° NNW 20:53:11 75° W 20:59:20 10° S
Cosmos 371 Rocket 3.4 20:48:41 10° NNW 20:53:07 63° NNE 20:53:07 63° NNE
Cosmos 2237 Rocket 2.4 20:48:22 10° NNW 20:54:02 68° WSW 20:56:29 35° S
NOSS 3-1 (C) 4.1 20:50:45 10° NW 20:58:16 76° SW 21:02:15 34° SSE
Cosmos 2297 Rocket 2.9 20:52:51 10° S 20:56:25 39° S 20:56:25 39° S
Cosmos 1066 Rocket 4.1 20:52:55 10° NNW 20:58:37 88° W 21:00:03 52° S
Cosmos 1602 Rocket 4.3 20:55:56 10° N 20:59:04 45° N 20:59:04 45° N
SJ-11-01 4.3 21:04:08 79° WSW 21:04:09 79° WSW 21:08:56 10° NNW
Meteor 1-12 Rocket 4.3 20:58:16 10° SSW 21:04:15 83° W 21:10:11 10° N
Cosmos 1626 Rocket 4.2 21:00:51 10° N 21:04:09 49° N 21:04:09 49° N
Cosmos 2219 Rocket 3.7 21:00:58 10° NW 21:05:56 33° WSW 21:10:47 10° SSW
Cosmos 2341 Rocket 4.0 21:00:12 10° S 21:06:35 88° W 21:13:02 10° N
Cosmos 2154 Rocket 4.3 21:01:29 10° SSW 21:07:47 67° W 21:14:08 10° N
Gbstr 26 Del rocket 4.2 21:05:41 10° W 21:08:15 34° NW 21:08:15 34° NW
Helios 1B rocket 3.4 21:05:40 10° N 21:09:40 47° WNW 21:13:39 10° SW
Cosmos 1486 Rocket 4.2 21:12:17 10° SSW 21:23:50 - NNE 21:16:55 65° SW
Cosmos 2227 Rocket 2.3 21:13:16 10° SSW 21:18:55 74° WNW 21:20:36 47° N
Cosmos 1455 Rocket 4.5 21:21:33 10° SW 21:25:34 36° WNW 21:29:38 10° N
Cosmos 841 Rocket 4.0 21:21:39 10° NNW 21:26:32 53° W 21:26:32 53° W
H-2A R/B 4.1 21:31:16 19° NNE 21:31:16 19° NNE 21:33:02 10° N
SL-16 R/B 2.4 21:24:16 10° NNW 21:29:17 68° NW 21:29:17 68° NW
USA 215 4.3 22:20:31 37° N 22:20:31 37° N 22:25:39 10° NW
ATLAS 2AS CENTAUR R/B 3.6 22:29:36 10° NW 22:35:33 53° NW 22:35:33 53° NW
